Location: Donald C. Martin Observatory
(38.3885°N, 82.3916°W)
Time: 20:17:21
(UTC-04:00)

Cosmos 1484 Rocket - Visible Passes

Search period start: 26 April 2015 00:00
Search period end: 06 May 2015 00:00
Orbit: 512 x 567 km, 97.4° (Epoch: 25 April)

Date Brightness Start Highest point End Pass type
(mag) Time Alt. Az. Time Alt. Az. Time Alt. Az.
26 Apr 4.0 20:56:26 10° S 21:00:08 44° W 21:03:55 10° NNW visible
27 Apr 3.6 20:48:57 10° S 20:52:44 56° W 20:56:38 10° NNW visible
28 Apr 3.2 20:41:30 10° S 20:45:22 70° W 20:49:19 10° NNW visible
02 May 6.0 21:49:36 10° WSW 21:50:48 11° W 21:51:47 10° WNW visible
03 May 5.8 21:41:12 10° WSW 21:43:18 14° W 21:45:15 10° WNW visible
04 May 5.6 21:33:10 10° SW 21:35:48 17° W 21:38:20 10° NW visible
05 May 5.5 21:25:17 10° SW 21:28:19 20° W 21:31:17 10° NW visible
